This is the latest recevied weather packets stored in our database for station/object KD5VOO. If no packets are shown the sender has not sent any weather packets the latest 10 day(s).
| Time | Temp. | Humidity | Pressure | Rain* | Wind** | Luminosity | Snow |
|---|---|---|---|---|---|---|---|
| 1777919390 | 25° C | 30% | 1013.9 hPa | 0 mm | - | 250 W/m² | - |
| 1777919086 | 25° C | 29% | 1013.9 hPa | 0 mm | - | 250 W/m² | - |
| 1777918784 | 25° C | 30% | 1013.9 hPa | 0 mm | - | 250 W/m² | - |
| 1777918481 | 25° C | 31% | 1014.3 hPa | 0 mm | - | 248 W/m² | - |
| 1777918179 | 25° C | 32% | 1014.3 hPa | 0 mm | - | 249 W/m² | - |
| 1777917878 | 25° C | 32% | 1014.3 hPa | 0 mm | - | 239 W/m² | - |
| 1777917576 | 24.44° C | 31% | 1014.3 hPa | 0 mm | - | 167 W/m² | - |
| 1777917272 | 24.44° C | 32% | 1014.3 hPa | 0 mm | - | 52 W/m² | - |
| 1777916970 | 24.44° C | 34% | 1014.6 hPa | 0 mm | - | 229 W/m² | - |
| 1777916667 | 24.44° C | 32% | 1014.3 hPa | 0 mm | - | 134 W/m² | - |
| 1777916365 | 24.44° C | 32% | 1014.3 hPa | 0 mm | - | 39 W/m² | - |
| 1777916061 | 24.44° C | 33% | 1014.3 hPa | 0 mm | - | 64 W/m² | - |
| 1777915759 | 24.44° C | 32% | 1014.6 hPa | 0 mm | - | 67 W/m² | - |
| 1777915454 | 23.89° C | 32% | 1014.3 hPa | 0 mm | - | 48 W/m² | - |
| 1777915151 | 23.89° C | 32% | 1014.6 hPa | 0 mm | - | 46 W/m² | - |
| 1777914848 | 23.89° C | 33% | 1014.6 hPa | 0 mm | - | 61 W/m² | - |
| 1777914545 | 23.89° C | 31% | 1014.6 hPa | 0 mm | - | 148 W/m² | - |
| 1777914241 | 23.89° C | 33% | 1014.6 hPa | 0 mm | - | 135 W/m² | - |
| 1777913938 | 23.89° C | 33% | 1014.6 hPa | 0 mm | - | 72 W/m² | - |
| 1777913635 | 23.89° C | 35% | 1014.3 hPa | 0 mm | - | 41 W/m² | - |
| 1777913331 | 23.33° C | 34% | 1014.3 hPa | 0 mm | - | 183 W/m² | - |
| 1777913029 | 23.33° C | 32% | 1014.9 hPa | 0 mm | - | 88 W/m² | - |
| 1777912724 | 23.33° C | 34% | 1014.6 hPa | 0 mm | - | 37 W/m² | - |
| 1777912420 | 23.33° C | 34% | 1014.9 hPa | 0 mm | - | 77 W/m² | - |
| 1777912117 | 23.33° C | 34% | 1014.6 hPa | 0 mm | - | 96 W/m² | - |
* Rain latest hour (hover to see other rain measurements)
** Current wind speed in m/s (hover to see current wind gust speed)